Woodward, OK

2:26 AM CDT on May 28, 2017 (GMT -0500)
West Woodward

Weather History for KWWR - January, 2014

Change the Weather History Date:

Tuesday, January 28, 2014

  Actual Average (KGAG) Record (KGAG)
Temperature  
Mean Temperature 20 °F -  
Max Temperature 32 °F 48 °F 78 °F (2008)
Min Temperature 8 °F 21 °F -2 °F (1948)
Degree Days  
Heating Degree Days 45    
Moisture  
Dew Point 14 °F    
Average Humidity 77    
Maximum Humidity 93    
Minimum Humidity 55    
Precipitation  
Precipitation 0.00 in - - ()
Sea Level Pressure  
Sea Level Pressure 30.39 in    
Wind  
Wind Speed 6 mph (West)    
Max Wind Speed 12 mph    
Max Gust Speed 21 mph    
Visibility 9 miles    
Events Snow    
Averages and records for this station are not official NWS values.
T = Trace of Precipitation, MM = Missing Value Source: NWS Daily Summary

Daily Weather History Graph

Daily Weather History Graph

Search for Another Location

Airport or City:

Trip Planner

Search our weather history database for the weather conditions in past years. The results will help you decide how hot, cold, wet, or windy it might be!

Date:

Astronomy

Jan. 28, 2014 Rise Set
Actual Time 7:42 AM CST 6:00 PM CST
Civil Twilight 7:15 AM CST 6:27 PM CST
Nautical Twilight 6:44 AM CST 6:58 PM CST
Astronomical Twilight 6:13 AM CST 7:28 PM CST
Moon 5:24 AM CST 3:52 PM CST
Length of Visible Light 11h 12m
Length of Day
10h 17m
Waning Crescent, 7% of the Moon is Illuminated
Jan 28
Waning Crescent
Jan 30
New
Feb 6
First Quarter
Feb 14
Full
Feb 22
Last Quarter

Hourly Weather History & Observations

Time (CST) Temp. Windchill Dew Point Humidity Pressure Visibility Wind Dir Wind Speed Gust Speed Precip Events Conditions
12:15 AM 15.8 °F 5.1 °F 12.2 °F 86% 30.42 in 3.0 mi NNE 8.1 mph - N/A Snow Light Snow
12:35 AM 15.8 °F 4.2 °F 12.2 °F 86% 30.42 in 5.0 mi NNE 9.2 mph - N/A Snow Light Snow
12:55 AM 15.8 °F 5.1 °F 12.2 °F 86% 30.42 in 2.0 mi NE 8.1 mph - N/A Snow Light Snow
1:15 AM 15.8 °F 6.1 °F 12.2 °F 86% 30.41 in 2.5 mi NNE 6.9 mph - N/A Snow Light Snow
1:35 AM 15.8 °F 7.2 °F 12.2 °F 86% 30.41 in 3.0 mi NE 5.8 mph - N/A Snow Light Snow
1:55 AM 15.8 °F 6.1 °F 12.2 °F 86% 30.41 in 3.0 mi NE 6.9 mph - N/A Snow Light Snow
2:15 AM 14.0 °F 6.5 °F 12.2 °F 93% 30.40 in 3.0 mi NE 4.6 mph - N/A Snow Light Snow
2:35 AM 14.0 °F 8.2 °F 12.2 °F 93% 30.41 in 5.0 mi NE 3.5 mph - N/A Snow Light Snow
2:55 AM 14.0 °F - 12.2 °F 93% 30.41 in 7.0 mi Calm Calm - N/A Snow Light Snow
3:15 AM 14.0 °F 8.2 °F 12.2 °F 93% 30.41 in 7.0 mi NE 3.5 mph - N/A Snow Light Snow
3:35 AM 14.0 °F - 12.2 °F 93% 30.41 in 7.0 mi Calm Calm - N/A Snow Light Snow
3:55 AM 14.0 °F - 12.2 °F 93% 30.40 in 5.0 mi Calm Calm - N/A Snow Light Snow
4:15 AM 14.0 °F - 12.2 °F 93% 30.40 in 3.0 mi Calm Calm - N/A Snow Light Snow
4:35 AM 14.0 °F - 12.2 °F 93% 30.40 in 2.5 mi Calm Calm - N/A Snow Light Snow
4:55 AM 14.0 °F - 12.2 °F 93% 30.40 in 2.5 mi Calm Calm - N/A Snow Light Snow
5:15 AM 14.0 °F - 12.2 °F 93% 30.41 in 4.0 mi Calm Calm - N/A Snow Light Snow
5:35 AM 14.0 °F - 12.2 °F 93% 30.42 in 10.0 mi Calm Calm - N/A Snow Light Snow
5:55 AM 14.0 °F 8.2 °F 12.2 °F 93% 30.43 in 10.0 mi West 3.5 mph - N/A   Overcast
6:15 AM 14.0 °F 8.2 °F 12.2 °F 93% 30.43 in 10.0 mi West 3.5 mph - N/A   Overcast
6:35 AM 14.0 °F 8.2 °F 10.4 °F 86% 30.43 in 10.0 mi WNW 3.5 mph - N/A   Overcast
6:55 AM 12.2 °F 2.9 °F 10.4 °F 92% 30.44 in 10.0 mi West 5.8 mph - N/A Snow Light Snow
7:15 AM 12.2 °F 2.9 °F 8.6 °F 85% 30.44 in 10.0 mi West 5.8 mph - N/A   Mostly Cloudy
7:35 AM 10.4 °F 0.8 °F 6.8 °F 85% 30.45 in 10.0 mi WNW 5.8 mph - N/A   Scattered Clouds
7:55 AM 10.4 °F -0.4 °F 6.8 °F 85% 30.45 in 10.0 mi West 6.9 mph - N/A   Clear
8:15 AM 8.6 °F -2.6 °F 5.0 °F 85% 30.45 in 10.0 mi WSW 6.9 mph - N/A   Clear
8:35 AM 10.4 °F 2.2 °F 8.6 °F 92% 30.45 in 10.0 mi SW 4.6 mph - N/A   Clear
8:55 AM 14.0 °F 6.5 °F 12.2 °F 93% 30.46 in 10.0 mi WSW 4.6 mph - N/A   Clear
9:15 AM 15.8 °F 8.6 °F 12.2 °F 86% 30.47 in 10.0 mi WSW 4.6 mph - N/A   Clear
9:35 AM 17.6 °F 9.3 °F 14.0 °F 86% 30.47 in 10.0 mi WSW 5.8 mph - N/A   Clear
9:55 AM 19.4 °F 10.4 °F 12.2 °F 74% 30.48 in 10.0 mi WSW 6.9 mph - N/A   Clear
10:15 AM 19.4 °F 11.5 °F 12.2 °F 74% 30.48 in 10.0 mi West 5.8 mph - N/A   Clear
10:35 AM 21.2 °F 10.9 °F 14.0 °F 74% 30.48 in 10.0 mi West 9.2 mph - N/A   Scattered Clouds
10:55 AM 23.0 °F 12.4 °F 14.0 °F 68% 30.48 in 10.0 mi West 10.4 mph - N/A   Scattered Clouds
11:15 AM 23.0 °F 12.4 °F 14.0 °F 68% 30.47 in 10.0 mi WSW 10.4 mph - N/A   Clear
11:35 AM 24.8 °F 14.6 °F 15.8 °F 69% 30.47 in 10.0 mi WSW 10.4 mph - N/A   Clear
11:55 AM 26.6 °F 17.5 °F 15.8 °F 64% 30.46 in 10.0 mi West 9.2 mph - N/A   Clear
12:15 PM 26.6 °F 17.5 °F 17.6 °F 69% 30.45 in 10.0 mi West 9.2 mph - N/A   Clear
12:35 PM 28.4 °F 19.7 °F 17.6 °F 64% 30.44 in 10.0 mi West 9.2 mph - N/A   Scattered Clouds
12:55 PM 28.4 °F 20.4 °F 17.6 °F 64% 30.42 in 10.0 mi NW 8.1 mph - N/A   Scattered Clouds
1:15 PM 28.4 °F 19.1 °F 17.6 °F 64% 30.42 in 10.0 mi WNW 10.4 mph 17.3 mph N/A   Scattered Clouds
1:35 PM 30.2 °F 20.8 °F 17.6 °F 60% 30.40 in 10.0 mi WNW 11.5 mph - N/A   Scattered Clouds
1:55 PM 30.2 °F 21.9 °F 19.4 °F 64% 30.38 in 10.0 mi West 9.2 mph - N/A   Clear
2:15 PM 30.2 °F 22.6 °F 17.6 °F 60% 30.36 in 10.0 mi WSW 8.1 mph - N/A   Clear
2:35 PM 30.2 °F 23.4 °F 19.4 °F 64% 30.35 in 10.0 mi West 6.9 mph - N/A   Scattered Clouds
2:55 PM 32.0 °F 24.2 °F 19.4 °F 60% 30.35 in 10.0 mi WNW 9.2 mph - N/A   Scattered Clouds
3:15 PM 32.0 °F 23.6 °F 19.4 °F 60% 30.34 in 10.0 mi West 10.4 mph - N/A   Clear
3:35 PM 32.0 °F 23.6 °F 19.4 °F 60% 30.34 in 10.0 mi West 10.4 mph 20.7 mph N/A   Scattered Clouds
3:55 PM 32.0 °F 24.2 °F 17.6 °F 55% 30.33 in 10.0 mi West 9.2 mph - N/A   Scattered Clouds
4:15 PM 32.0 °F 23.0 °F 17.6 °F 55% 30.33 in 10.0 mi West 11.5 mph 17.3 mph N/A   Clear
4:35 PM 32.0 °F 23.0 °F 17.6 °F 55% 30.33 in 10.0 mi WNW 11.5 mph - N/A   Clear
4:55 PM 32.0 °F 24.2 °F 17.6 °F 55% 30.32 in 10.0 mi West 9.2 mph - N/A   Clear
5:15 PM 32.0 °F 24.2 °F 17.6 °F 55% 30.32 in 10.0 mi West 9.2 mph - N/A   Clear
5:35 PM 32.0 °F 26.4 °F 17.6 °F 55% 30.32 in 10.0 mi WNW 5.8 mph - N/A   Clear
5:55 PM 28.4 °F 22.2 °F 19.4 °F 69% 30.32 in 10.0 mi West 5.8 mph - N/A   Clear
6:15 PM 26.6 °F 20.0 °F 17.6 °F 69% 30.31 in 10.0 mi West 5.8 mph - N/A   Clear
6:35 PM 26.6 °F 21.2 °F 17.6 °F 69% 30.32 in 10.0 mi WSW 4.6 mph - N/A   Clear
6:55 PM 26.6 °F 21.2 °F 17.6 °F 69% 30.32 in 10.0 mi WSW 4.6 mph - N/A   Clear
7:15 PM 23.0 °F 17.0 °F 17.6 °F 80% 30.32 in 10.0 mi West 4.6 mph - N/A   Clear
7:35 PM 23.0 °F 17.0 °F 17.6 °F 80% 30.33 in 10.0 mi WSW 4.6 mph - N/A   Clear
7:55 PM 23.0 °F 17.0 °F 17.6 °F 80% 30.32 in 10.0 mi SSW 4.6 mph - N/A   Clear
8:15 PM 21.2 °F 13.6 °F 17.6 °F 86% 30.32 in 10.0 mi SSW 5.8 mph - N/A   Clear
8:35 PM 21.2 °F 12.6 °F 15.8 °F 80% 30.32 in 10.0 mi SSW 6.9 mph - N/A   Clear
8:55 PM 21.2 °F 13.6 °F 15.8 °F 80% 30.32 in 10.0 mi South 5.8 mph - N/A   Clear
9:15 PM 19.4 °F 10.4 °F 14.0 °F 80% 30.32 in 10.0 mi South 6.9 mph - N/A   Clear
9:35 PM 21.2 °F 12.6 °F 14.0 °F 74% 30.32 in 10.0 mi SSW 6.9 mph - N/A   Clear
9:55 PM 19.4 °F 10.4 °F 14.0 °F 80% 30.32 in 10.0 mi SSW 6.9 mph - N/A   Clear
10:15 PM 19.4 °F 10.4 °F 14.0 °F 80% 30.31 in 10.0 mi SSW 6.9 mph - N/A   Clear
10:35 PM 19.4 °F 10.4 °F 14.0 °F 80% 30.31 in 10.0 mi SSW 6.9 mph - N/A   Clear
10:55 PM 21.2 °F 13.6 °F 14.0 °F 74% 30.30 in 10.0 mi SW 5.8 mph - N/A   Clear
11:15 PM 19.4 °F 10.4 °F 12.2 °F 74% 30.29 in 10.0 mi SSE 6.9 mph - N/A   Clear
11:35 PM 19.4 °F 10.4 °F 14.0 °F 80% 30.29 in 10.0 mi SSW 6.9 mph - N/A   Clear
11:55 PM 17.6 °F 7.3 °F 12.2 °F 79% 30.29 in 10.0 mi SSW 8.1 mph - N/A   Clear